[[{"header":{"parameterUnit":"m.s-1","parameterCategory":2,"la1":30.2991,"la2":30.254,"lo1":-89.0895,"lo2":-89.0444,"dy":0.0017,"dx":0.0017,"nx":28,"ny":28,"refTime":"2023-08-30T21:00:00:Z","depth":"0","parameterNumber":2,"parameterNumberName":"U-component_of_CURRENTS"},"data":[0,0,0,0,0,0,0,0,0,0,0,0,0,0,0,0,0,0,0,0,0,0,0,0,0,0,0,0,0,0,0,0,0,0,0,0,0,0,0,0,0,0,0,0,0,0,0,0,0,0,0,0,0,0,0,0,0,0,0.2351,0.2352,0,0.2383,0.2383,0.2384,0.2384,0.2384,0.2384,0.2383,0.2381,0.2381,0.2381,0,0,0,0,0,0,0,0,0,0,0,0,0,0.2285,0.2286,0.2351,0.2352,0.2352,0.2383,0.2383,0.2384,0.2384,0.2384,0.2384,0.2383,0.2381,0.2381,0.2381,0,0,0,0,0,0,0,0,0,0,0,0,0,0.2314,0.2286,0.2351,0.2357,0.2358,0.2383,0.2383,0.2384,0.2384,0.2384,0.2384,0.2383,0.2381,0.2381,0.2382,0.2392,0,0,0.2382,0.2383,0,0,0,0,0,0,0,0,0.2312,0.2316,0.2356,0.2357,0.2358,0.238,0.2359,0.2385,0.2385,0.2373,0.2383,0.2383,0.2379,0.2379,0.2385,0.2392,0.2392,0.2382,0.2383,0.2383,0.2383,0,0,0,0,0,0,0,0.231,0.2315,0.2363,0.2356,0.2358,0.2356,0.236,0.2364,0.2376,0.2374,0.2375,0.238,0.2379,0.2385,0.2385,0.2392,0.2382,0.2383,0.2383,0.2383,0.2433,0.2434,0,0,0,0,0,0,0.231,0.2313,0.2362,0.2364,0.2335,0.2358,0.2362,0.2373,0.2377,0.2378,0.238,0.238,0.2384,0.2385,0.2385,0.2417,0.2383,0.2383,0.2383,0.2432,0.2433,0.2435,0,0,0,0,0,0,0.2308,0.2314,0.236,0.2339,0.2345,0.236,0.2372,0.2373,0.2381,0.2383,0.2382,0.2387,0.2384,0.2384,0.2404,0.2416,0.2383,0.2384,0.2431,0.2432,0.2434,0.2469,0,0,0,0,0,0,0.2306,0.2313,0.232,0.234,0.2347,0.238,0.2372,0.2374,0.2386,0.2386,0.2388,0.2387,0.2384,0.2404,0.2405,0.2416,0.2384,0.2429,0.2431,0.2434,0.2467,0.2472,0.2477,0,0,0,0,0,0.2304,0.2311,0.2321,0.2326,0.2356,0.2381,0.2384,0.2391,0.2387,0.2395,0.2404,0.2387,0.2418,0.2406,0.2406,0.2418,0.2428,0.2431,0.2433,0.2465,0.2471,0.2477,0,0,0,0,0,0,0.2278,0.2312,0.2323,0.2339,0.2362,0.2381,0.2389,0.2395,0.2409,0.2409,0.2405,0.2406,0.2427,0.2421,0.2408,0.244,0.2419,0.2422,0.2443,0.2449,0.2454,0.2448,0.2384,0,0,0,0,0,0.2279,0.2298,0.2328,0.2342,0.2355,0.2374,0.2384,0.2393,0.2408,0.2414,0.2417,0.2424,0.2439,0.2443,0.2452,0.2469,0.247,0.2477,0.2482,0.2486,0.2483,0.2496,0.2501,0.2443,0.2443,0.2443,0,0,0.227,0.2294,0.2302,0.2339,0.2357,0.2382,0.2378,0.2399,0.2419,0.2411,0.2435,0.2442,0.2449,0.2473,0.2481,0.2468,0.2509,0.249,0.2493,0.2487,0.2499,0.2505,0.2509,0.2445,0.2445,0.2444,0,0,0.2266,0.2288,0.2305,0.2331,0.2367,0.2385,0.2393,0.242,0.2431,0.2457,0.2461,0.2478,0.2492,0.2505,0.2511,0.2549,0.2536,0.2551,0.2567,0.258,0.2585,0.2589,0.2617,0.2623,0.255,0.255,0.255,0,0.2255,0.2285,0.2312,0.234,0.2362,0.2388,0.2413,0.2433,0.2462,0.2473,0.2467,0.2501,0.2507,0.2539,0.2556,0.2559,0.2568,0.2543,0.2586,0.2589,0.2593,0.2621,0.2627,0.2552,0.2552,0.2552,0.2552,0,0.2269,0.2295,0.2308,0.2358,0.2385,0.241,0.2448,0.2472,0.2486,0.25,0.253,0.2544,0.2559,0.2569,0.2574,0.2606,0.2608,0.2592,0.2567,0.26,0.2628,0.2634,0.2555,0.2555,0.2554,0.2553,0,0,0.2241,0.2305,0.231,0.2332,0.2398,0.2415,0.2464,0.2504,0.2522,0.2547,0.2568,0.2599,0.2597,0.2606,0.2615,0.263,0.2673,0.2623,0.2623,0.2646,0.2717,0.2736,0.2744,0.2663,0.2663,0.2664,0.2734,0,0.2246,0.2285,0.2327,0.2368,0.2391,0.2442,0.2479,0.2519,0.2548,0.2575,0.2595,0.2616,0.2615,0.2624,0.264,0.2668,0.2687,0.2657,0.2685,0.2686,0.2694,0.2751,0.2722,0.2783,0.274,0.2741,0.2741,0,0.2249,0.2276,0.2311,0.2368,0.2383,0.2413,0.2473,0.2511,0.2565,0.2585,0.2613,0.2629,0.2673,0.2653,0.271,0.2692,0.2706,0.272,0.2723,0.2728,0.2716,0.274,0.2795,0.276,0.275,0.2749,0.2749,0,0.2204,0.2265,0.2288,0.231,0.2379,0.2403,0.2442,0.2504,0.2536,0.2592,0.2615,0.2658,0.2691,0.2709,0.2757,0.2732,0.2817,0.2782,0.2812,0.2814,0.2788,0.2787,0.2805,0.2807,0.2807,0.2807,0.2807,0,0.2193,0.2207,0.2263,0.2273,0.2301,0.2364,0.24,0.2449,0.2514,0.2547,0.2608,0.2647,0.2705,0.2763,0.2776,0.2835,0.2835,0.283,0.2836,0.2804,0.2803,0.2767,0.2725,0.2809,0.2809,0.2808,0.2808,0,0.214,0.2177,0.2201,0.2261,0.2279,0.2297,0.2375,0.2395,0.2472,0.2524,0.2545,0.2657,0.2749,0.2812,0.2874,0.2875,0.285,0.2925,0.29,0.29,0.2874,0.2834,0.2704,0.2618,0.2962,0.2963,0.2964,0,0.2116,0.2122,0.2174,0.2181,0.2208,0.2246,0.227,0.2358,0.239,0.2523,0.2541,0.2672,0.2757,0.2891,0.2942,0.3002,0.2888,0.2981,0.2919,0.2887,0.2846,0.2686,0.261,0.2909,0.2909,0.2909,0.291,0,0.2075,0.2093,0.2114,0.2129,0.2149,0.2168,0.2215,0.2236,0.2342,0.2416,0.2526,0.2617,0.2795,0.2883,0.2993,0.3009,0.2862,0.2986,0.2952,0.2812,0.2637,0.2553,0.286,0.2912,0.2911,0.2911,0.2911,0.2911,0.2048,0.2053,0.2081,0.2093,0.2097,0.209,0.2101,0.2155,0.2222,0.2333,0.2455,0.2595,0.2796,0.297,0.2955,0.2978,0.2878,0.2929,0.289,0.2734,0.2622,0.2948,0.3003,0.3003,0.3003,0.3004,0.3004,0,0.2042,0.2048,0.2045,0.2052,0.2028,0.2052,0.2067,0.2081,0.2141,0.2276,0.2392,0.2618,0.275,0.287,0.2989,0.2915,0.2733,0.2846,0.262,0.2552,0.2871,0.2845,0.287,0.287,0.287,0.287,0.287,0.287,0.2047,0.2049,0.2048,0.2003,0.199,0.1964,0.1967,0.1988,0.2073,0.2204,0.2343,0.246,0.2718,0.2914,0.2923,0.2853,0.2614,0.2526,0.2447,0.272,0.2723,0.2727,0.2695,0.2687,0.2687,0.205,0.2046,0.2043]},{"header":{"parameterUnit":"m.s-1","parameterCategory":2,"la1":30.2991,"la2":30.254,"lo1":-89.0895,"lo2":-89.0444,"dy":0.0017,"dx":0.0017,"nx":28,"ny":28,"refTime":"2023-08-30T21:00:00:Z","depth":"0","parameterNumber":3,"parameterNumberName":"V-component_of_CURRENTS"},"data":[0,0,0,0,0,0,0,0,0,0,0,0,0,0,0,0,0,0,0,0,0,0,0,0,0,0,0,0,0,0,0,0,0,0,0,0,0,0,0,0,0,0,0,0,0,0,0,0,0,0,0,0,0,0,0,0,0,0,-0.0238,-0.0238,0,-0.0284,-0.0284,-0.0285,-0.0327,-0.0327,-0.0328,-0.0328,-0.0422,-0.0424,-0.0427,0,0,0,0,0,0,0,0,0,0,0,0,0,-0.0238,-0.0238,-0.0238,-0.0238,-0.0238,-0.0283,-0.0284,-0.0285,-0.0327,-0.0327,-0.0328,-0.0328,-0.0422,-0.0424,-0.0427,0,0,0,0,0,0,0,0,0,0,0,0,0,-0.0259,-0.0238,-0.0238,-0.0263,-0.0266,-0.0283,-0.0284,-0.0285,-0.0327,-0.0327,-0.0328,-0.0328,-0.0421,-0.0424,-0.0427,-0.0439,0,0,-0.0438,-0.0439,0,0,0,0,0,0,0,0,-0.0257,-0.0259,-0.0259,-0.0261,-0.0264,-0.0298,-0.0319,-0.0339,-0.0327,-0.0306,-0.0328,-0.0328,-0.0383,-0.039,-0.04,-0.0444,-0.0448,-0.0438,-0.044,-0.0441,-0.0442,0,0,0,0,0,0,0,-0.0256,-0.0257,-0.0258,-0.0259,-0.0262,-0.0289,-0.0293,-0.0323,-0.0345,-0.0308,-0.0311,-0.0312,-0.0385,-0.0397,-0.0403,-0.0449,-0.0438,-0.0441,-0.0443,-0.0444,-0.051,-0.051,0,0,0,0,0,0,-0.0242,-0.0256,-0.0257,-0.026,-0.0259,-0.0289,-0.0292,-0.0289,-0.0343,-0.0351,-0.0311,-0.0313,-0.0391,-0.0399,-0.0406,-0.041,-0.0441,-0.0444,-0.0446,-0.051,-0.051,-0.0509,0,0,0,0,0,0,-0.0242,-0.0241,-0.0255,-0.0257,-0.026,-0.0288,-0.0283,-0.0289,-0.0298,-0.0345,-0.0354,-0.0313,-0.0392,-0.0402,-0.043,-0.0415,-0.0446,-0.0449,-0.051,-0.051,-0.051,-0.0427,0,0,0,0,0,0,-0.0241,-0.0241,-0.0237,-0.0256,-0.026,-0.0256,-0.0283,-0.029,-0.0297,-0.03,-0.0349,-0.0359,-0.0393,-0.0425,-0.0433,-0.042,-0.0452,-0.0511,-0.051,-0.051,-0.043,-0.0424,-0.0419,0,0,0,0,0,-0.0241,-0.0225,-0.0236,-0.0236,-0.0252,-0.0255,-0.026,-0.0283,-0.0296,-0.0294,-0.033,-0.0357,-0.0428,-0.0427,-0.0437,-0.0425,-0.0511,-0.051,-0.051,-0.0433,-0.0425,-0.0419,0,0,0,0,0,0,-0.0216,-0.0228,-0.0241,-0.0228,-0.0238,-0.0261,-0.0261,-0.0276,-0.0303,-0.0308,-0.0355,-0.0367,-0.0388,-0.0419,-0.0417,-0.0443,-0.0473,-0.0474,-0.0411,-0.0404,-0.0398,-0.0367,-0.0454,0,0,0,0,0,-0.0209,-0.0205,-0.022,-0.021,-0.0213,-0.0237,-0.0242,-0.0255,-0.0279,-0.0291,-0.0324,-0.0362,-0.0393,-0.0408,-0.0443,-0.0455,-0.0478,-0.0454,-0.0448,-0.0443,-0.0425,-0.0452,-0.0447,-0.0507,-0.0507,-0.0507,0,0,-0.0196,-0.0202,-0.02,-0.0205,-0.0217,-0.0209,-0.0242,-0.0241,-0.0234,-0.0297,-0.0303,-0.0345,-0.0394,-0.0409,-0.042,-0.0432,-0.0439,-0.0442,-0.0437,-0.0422,-0.0451,-0.0445,-0.044,-0.0507,-0.0507,-0.0507,0,0,-0.0162,-0.0173,-0.0159,-0.0164,-0.0174,-0.0186,-0.0181,-0.02,-0.021,-0.0223,-0.0266,-0.0292,-0.0342,-0.0365,-0.0386,-0.0369,-0.041,-0.0386,-0.0327,-0.0353,-0.0348,-0.0343,-0.0363,-0.0361,-0.0379,-0.0379,-0.0379,0,-0.0149,-0.0129,-0.0154,-0.0141,-0.0137,-0.0169,-0.0147,-0.016,-0.0185,-0.0186,-0.0214,-0.0273,-0.0316,-0.0325,-0.0322,-0.0352,-0.0376,-0.0347,-0.0343,-0.034,-0.0336,-0.0358,-0.0357,-0.0375,-0.0375,-0.0376,-0.0376,0,-0.0102,-0.0091,-0.008,-0.0075,-0.0075,-0.0061,-0.0078,-0.0077,-0.0097,-0.0112,-0.0129,-0.0188,-0.0219,-0.024,-0.0277,-0.0274,-0.0301,-0.0335,-0.0355,-0.0325,-0.035,-0.0351,-0.0369,-0.037,-0.0372,-0.0373,0,0,-0.0063,-0.005,-0.0047,-0.0032,-0.0038,-0.0028,-0.0014,-0.0007,0.0013,-0.0027,-0.0011,-0.0069,-0.0102,-0.0127,-0.0177,-0.0198,-0.0203,-0.025,-0.0253,-0.0258,-0.0257,-0.0262,-0.0264,-0.024,-0.024,-0.024,-0.0282,0,-0.0019,0.0025,0.0017,0.006,0.0082,0.0062,0.0083,0.0082,0.0067,0.0072,0.0018,0.0002,-0.0059,-0.0075,-0.0103,-0.0182,-0.0201,-0.0188,-0.0295,-0.0298,-0.0297,-0.0263,-0.0224,-0.0257,-0.0283,-0.0283,-0.0283,0,0.0028,0.0052,0.0102,0.0135,0.0144,0.0167,0.0197,0.021,0.0203,0.019,0.0167,0.0113,0.0078,0.0015,-0.0078,-0.007,-0.0148,-0.021,-0.0214,-0.0244,-0.0303,-0.0294,-0.0257,-0.0412,-0.0284,-0.0284,-0.0284,0,0.0072,0.0112,0.0157,0.0166,0.0196,0.0223,0.0244,0.0251,0.0278,0.0265,0.0278,0.0212,0.0188,0.0085,-0.0044,-0.0065,-0.0148,-0.02,-0.0274,-0.0276,-0.0273,-0.0275,-0.0385,-0.0257,-0.0257,-0.0257,-0.0257,0,0.0121,0.0156,0.0186,0.0212,0.0278,0.0277,0.0346,0.0352,0.0377,0.0429,0.0345,0.0367,0.0204,0.013,-0.0002,-0.0126,-0.0118,-0.0245,-0.028,-0.0244,-0.0243,-0.0404,-0.0485,-0.0258,-0.0258,-0.0258,-0.0257,0,0.0159,0.0174,0.0232,0.028,0.03,0.0349,0.0422,0.0474,0.0481,0.0547,0.0547,0.0486,0.0393,0.023,0.0065,-0.0057,-0.0269,-0.024,-0.0182,-0.0208,-0.0425,-0.0501,-0.063,-0.071,-0.0325,-0.0325,-0.0325,0,0.0183,0.0216,0.0283,0.0331,0.0359,0.0432,0.0491,0.0524,0.0587,0.0633,0.0676,0.0603,0.0587,0.0345,0.0102,-0.0116,-0.0269,-0.0233,-0.0267,-0.0413,-0.0525,-0.0588,-0.0652,-0.0236,-0.0235,-0.0235,-0.0235,0,0.0235,0.0255,0.0305,0.0403,0.0475,0.0561,0.0651,0.0717,0.0771,0.0835,0.0906,0.0896,0.067,0.0461,0.0146,-0.0009,-0.0328,-0.0231,-0.0399,-0.0466,-0.0525,-0.0625,-0.0237,-0.0231,-0.0231,-0.0232,-0.0232,-0.0232,0.0275,0.0322,0.0393,0.0487,0.0576,0.0695,0.0787,0.0892,0.1012,0.1145,0.1101,0.1153,0.0822,0.0401,0.0132,-0.0301,-0.0325,-0.0425,-0.0505,-0.0556,-0.0631,-0.0227,-0.0255,-0.0255,-0.0256,-0.0256,-0.0256,0,0.0328,0.0388,0.0479,0.06,0.0714,0.0745,0.09,0.1011,0.1181,0.1312,0.1392,0.1298,0.0889,0.0451,-0.0153,-0.0505,-0.0642,-0.0689,-0.0777,-0.0832,-0.048,-0.0475,-0.0531,-0.0531,-0.0531,-0.0531,-0.0531,-0.053,0.0363,0.0456,0.0505,0.0699,0.0791,0.095,0.1048,0.1218,0.1356,0.1563,0.164,0.164,0.1317,0.0202,-0.0589,-0.0777,-0.1035,-0.1074,-0.1236,-0.1004,-0.0986,-0.0969,-0.0984,-0.1146,-0.1147,-0.1542,-0.1546,-0.1549]}],[{"header":{"parameterUnit":"m.s-1","parameterCategory":2,"la1":30.2991,"la2":30.254,"lo1":-89.0895,"lo2":-89.0444,"dy":0.0017,"dx":0.0017,"nx":28,"ny":28,"refTime":"2023-08-30T21:00:00:Z","depth":"2","parameterNumber":2,"parameterNumberName":"U-component_of_CURRENTS"},"data":[0,0,0,0,0,0,0,0,0,0,0,0,0,0,0,0,0,0,0,0,0,0,0,0,0,0,0,0,0,0,0,0,0,0,0,0,0,0,0,0,0,0,0,0,0,0,0,0,0,0,0,0,0,0,0,0,0,0,0.1991,0.1991,0,0.2029,0.2029,0.203,0.2049,0.2049,0.205,0.205,0.208,0.2081,0.2081,0,0,0,0,0,0,0,0,0,0,0,0,0,0.1928,0.1929,0.1991,0.1991,0.1992,0.2029,0.2029,0.203,0.2049,0.2049,0.205,0.205,0.208,0.2081,0.2082,0,0,0,0,0,0,0,0,0,0,0,0,0,0.1959,0.1929,0.199,0.2007,0.2009,0.2029,0.2029,0.203,0.2049,0.2049,0.205,0.205,0.208,0.2081,0.2082,0.2084,0,0,0.2085,0.2085,0,0,0,0,0,0,0,0,0.1957,0.1961,0.2004,0.2006,0.2008,0.2036,0.2019,0.2048,0.2049,0.2033,0.205,0.205,0.2065,0.2067,0.2073,0.2086,0.2087,0.2085,0.2086,0.2086,0.2086,0,0,0,0,0,0,0,0.1955,0.1959,0.2005,0.2004,0.2007,0.201,0.2015,0.2024,0.2046,0.2034,0.2036,0.2042,0.2066,0.2072,0.2073,0.2088,0.2085,0.2086,0.2086,0.2087,0.2141,0.2142,0,0,0,0,0,0,0.1953,0.1957,0.2003,0.2006,0.1984,0.2011,0.2016,0.2026,0.2046,0.205,0.2042,0.2043,0.207,0.2072,0.2075,0.2118,0.2086,0.2087,0.2088,0.214,0.2141,0.2142,0,0,0,0,0,0,0.1951,0.1956,0.2002,0.1983,0.1989,0.2012,0.2023,0.2026,0.2045,0.2053,0.2056,0.2058,0.207,0.2073,0.2106,0.2118,0.2087,0.2088,0.2139,0.2141,0.2142,0.2181,0,0,0,0,0,0,0.1949,0.1956,0.1967,0.1983,0.199,0.2025,0.2023,0.2027,0.2048,0.205,0.2067,0.2069,0.207,0.2104,0.2107,0.2119,0.2089,0.2138,0.214,0.2141,0.2178,0.2183,0.2187,0,0,0,0,0,0.1947,0.1955,0.1967,0.1973,0.2003,0.2026,0.2031,0.2046,0.2048,0.2062,0.208,0.207,0.2115,0.2106,0.2109,0.2122,0.2138,0.2139,0.2141,0.2176,0.2182,0.2187,0,0,0,0,0,0,0.193,0.1959,0.1972,0.1989,0.2014,0.203,0.2044,0.2053,0.2077,0.2083,0.2087,0.2091,0.2121,0.2118,0.2108,0.2141,0.2121,0.2124,0.2147,0.2153,0.2157,0.2155,0.209,0,0,0,0,0,0.1934,0.1954,0.1978,0.1996,0.2009,0.203,0.2043,0.2055,0.2075,0.2086,0.2097,0.211,0.2128,0.2139,0.2151,0.2173,0.2176,0.2181,0.2185,0.2189,0.2189,0.2211,0.2218,0.2148,0.2148,0.2148,0,0,0.1931,0.1952,0.1962,0.1995,0.2015,0.2036,0.2038,0.2063,0.2082,0.2085,0.2115,0.2128,0.2138,0.2166,0.2177,0.2167,0.2213,0.2191,0.2194,0.2193,0.2214,0.222,0.2226,0.2149,0.2149,0.2149,0,0,0.1931,0.1958,0.1972,0.1997,0.2033,0.2048,0.2058,0.2083,0.2099,0.2131,0.2138,0.2163,0.2185,0.2198,0.2207,0.2242,0.2235,0.2241,0.2263,0.2285,0.2291,0.2296,0.2319,0.2326,0.2243,0.2243,0.2243,0,0.1923,0.1956,0.198,0.2004,0.2026,0.2055,0.2074,0.2096,0.2129,0.2145,0.2146,0.219,0.2199,0.2236,0.225,0.2251,0.2264,0.2244,0.2291,0.2296,0.2301,0.2323,0.233,0.2245,0.2245,0.2245,0.2245,0,0.194,0.1968,0.1981,0.2024,0.2046,0.2074,0.2105,0.2134,0.2155,0.2172,0.2213,0.2232,0.2258,0.2264,0.2271,0.2308,0.2307,0.2295,0.2278,0.231,0.2332,0.2338,0.2248,0.2248,0.2247,0.2247,0,0,0.1911,0.1978,0.1985,0.2005,0.2063,0.2075,0.2122,0.2164,0.2191,0.2223,0.2257,0.229,0.23,0.2311,0.2321,0.234,0.2389,0.2335,0.2335,0.2358,0.2444,0.2435,0.2441,0.2388,0.2389,0.239,0.245,0,0.1919,0.1955,0.1997,0.2033,0.2049,0.2102,0.2137,0.2178,0.2218,0.2259,0.2288,0.2322,0.2318,0.2338,0.2359,0.2385,0.2406,0.2374,0.2408,0.2409,0.2398,0.2448,0.2274,0.2312,0.2456,0.2457,0.2458,0,0.1917,0.1946,0.1979,0.2031,0.2045,0.2076,0.2139,0.2178,0.2249,0.228,0.2327,0.2352,0.2403,0.2385,0.2444,0.2426,0.2438,0.2449,0.2452,0.2432,0.2413,0.23,0.2318,0.2469,0.2468,0.2467,0.2466,0,0.1869,0.1927,0.1952,0.1974,0.204,0.2072,0.2114,0.2183,0.2221,0.2302,0.234,0.2393,0.2434,0.2458,0.2496,0.2475,0.2555,0.2524,0.2525,0.2525,0.2376,0.2361,0.2556,0.2556,0.2555,0.2555,0.2555,0,0.1858,0.1873,0.1932,0.1952,0.1983,0.2037,0.2087,0.2145,0.2224,0.227,0.2346,0.2396,0.2455,0.2511,0.2521,0.256,0.2578,0.2542,0.2544,0.2386,0.2372,0.25,0.2493,0.2557,0.2557,0.2557,0.2556,0,0.1804,0.1847,0.1869,0.1939,0.1963,0.1983,0.2073,0.2103,0.2195,0.2266,0.2297,0.2416,0.25,0.2554,0.2611,0.2599,0.2627,0.2629,0.2448,0.2428,0.2572,0.2566,0.2632,0.2632,0.2633,0.2633,0.2633,0,0.1784,0.1789,0.1848,0.186,0.19,0.1944,0.1977,0.2077,0.2121,0.227,0.23,0.2426,0.2498,0.2603,0.2617,0.265,0.2661,0.2488,0.241,0.2587,0.2582,0.2576,0.257,0.2228,0.2225,0.2223,0.222,0,0.1746,0.1763,0.1786,0.1812,0.1843,0.1873,0.1939,0.1967,0.2087,0.2166,0.2279,0.2357,0.2489,0.247,0.2534,0.2516,0.247,0.2438,0.267,0.2246,0.2214,0.2207,0.2212,0.2197,0.22,0.2201,0.2203,0.2204,0.1716,0.1713,0.1744,0.1762,0.1783,0.1802,0.1811,0.1882,0.1954,0.2056,0.218,0.2253,0.2315,0.2347,0.229,0.2253,0.241,0.2288,0.2293,0.2301,0.2253,0.2224,0.2201,0.2203,0.2205,0.2207,0.2208,0,0.1692,0.1695,0.1697,0.1712,0.1698,0.1747,0.1781,0.1771,0.1825,0.1952,0.2045,0.1951,0.1979,0.2027,0.1955,0.1968,0.1905,0.1872,0.1766,0.1794,0.1817,0.1739,0.1554,0.1551,0.1549,0.1546,0,0,0.1685,0.1679,0.1676,0.1639,0.1641,0.1618,0.1623,0.1619,0.168,0.1704,0.1755,0.1936,0.2022,0.1775,0.1748,0.1639,0.1694,0.1578,0.2117,0.2024,0.2044,0.2089,0.2007,0,0,0,0,0]},{"header":{"parameterUnit":"m.s-1","parameterCategory":2,"la1":30.2991,"la2":30.254,"lo1":-89.0895,"lo2":-89.0444,"dy":0.0017,"dx":0.0017,"nx":28,"ny":28,"refTime":"2023-08-30T21:00:00:Z","depth":"2","parameterNumber":3,"parameterNumberName":"V-component_of_CURRENTS"},"data":[0,0,0,0,0,0,0,0,0,0,0,0,0,0,0,0,0,0,0,0,0,0,0,0,0,0,0,0,0,0,0,0,0,0,0,0,0,0,0,0,0,0,0,0,0,0,0,0,0,0,0,0,0,0,0,0,0,0,0.0058,0.0058,0,0.0012,0.0011,0.0011,-0.0032,-0.0033,-0.0033,-0.0033,-0.0124,-0.0126,-0.0128,0,0,0,0,0,0,0,0,0,0,0,0,0,0.0069,0.0069,0.0058,0.0058,0.0057,0.0012,0.0011,0.001,-0.0032,-0.0033,-0.0033,-0.0034,-0.0123,-0.0126,-0.0128,0,0,0,0,0,0,0,0,0,0,0,0,0,0.0046,0.0069,0.0058,0.0032,0.0029,0.0012,0.0011,0.001,-0.0032,-0.0033,-0.0033,-0.0034,-0.0122,-0.0125,-0.0128,-0.0137,0,0,-0.0138,-0.0139,0,0,0,0,0,0,0,0,0.0047,0.0045,0.0036,0.0034,0.0031,-0.0003,-0.0018,-0.004,-0.0032,-0.0011,-0.0033,-0.0034,-0.0086,-0.0092,-0.0102,-0.0141,-0.0145,-0.0138,-0.014,-0.0141,-0.0142,0,0,0,0,0,0,0,0.0049,0.0047,0.0038,0.0036,0.0032,0.0009,0.0005,-0.0023,-0.0047,-0.0013,-0.0016,-0.0018,-0.0088,-0.0098,-0.0104,-0.0146,-0.0138,-0.0141,-0.0143,-0.0144,-0.0201,-0.02,0,0,0,0,0,0,0.0061,0.0049,0.0039,0.0037,0.004,0.0009,0.0005,0.0007,-0.0046,-0.0054,-0.0017,-0.0019,-0.0093,-0.01,-0.0108,-0.0118,-0.0141,-0.0144,-0.0146,-0.0201,-0.0201,-0.02,0,0,0,0,0,0,0.0062,0.0061,0.0041,0.0043,0.0039,0.001,0.0012,0.0006,-0.0006,-0.0048,-0.0057,-0.0023,-0.0094,-0.0103,-0.013,-0.0122,-0.0146,-0.0149,-0.0201,-0.0201,-0.02,-0.014,0,0,0,0,0,0,0.0062,0.0062,0.0063,0.0044,0.0039,0.0037,0.0012,0.0006,-0.0006,-0.0009,-0.0057,-0.0065,-0.0095,-0.0125,-0.0133,-0.0127,-0.0151,-0.0202,-0.0201,-0.0201,-0.0143,-0.0138,-0.0134,0,0,0,0,0,0.0063,0.0075,0.0064,0.0062,0.0044,0.0038,0.0033,0.0009,-0.0005,-0.0006,-0.0039,-0.0064,-0.0127,-0.0127,-0.0137,-0.0131,-0.0202,-0.0201,-0.0201,-0.0145,-0.0139,-0.0134,0,0,0,0,0,0,0.0081,0.0071,0.0059,0.0066,0.0054,0.0031,0.0029,0.0013,-0.0013,-0.0019,-0.0062,-0.0073,-0.0092,-0.012,-0.012,-0.0145,-0.0168,-0.0169,-0.0122,-0.0117,-0.0112,-0.0094,-0.0154,0,0,0,0,0,0.0087,0.009,0.0076,0.008,0.0077,0.0052,0.0045,0.0031,0.0008,-0.0004,-0.0036,-0.0069,-0.0095,-0.0112,-0.0139,-0.0155,-0.0182,-0.0157,-0.0153,-0.0148,-0.014,-0.0178,-0.0176,-0.0198,-0.0198,-0.0198,0,0,0.0095,0.0089,0.0091,0.0083,0.007,0.0077,0.0046,0.0042,0.0045,-0.001,-0.0019,-0.0054,-0.0095,-0.0111,-0.0122,-0.0135,-0.0155,-0.0147,-0.0144,-0.0138,-0.0177,-0.0174,-0.0173,-0.0197,-0.0197,-0.0197,0,0,0.012,0.0109,0.0122,0.0116,0.0104,0.0094,0.0096,0.0076,0.0063,0.0049,0.0013,-0.0015,-0.0056,-0.0082,-0.0101,-0.0088,-0.0128,-0.0097,-0.0062,-0.0099,-0.0097,-0.0096,-0.0122,-0.0123,-0.0097,-0.0096,-0.0096,0,0.0131,0.0145,0.0125,0.0136,0.0138,0.0107,0.0125,0.0111,0.0084,0.0076,0.0054,-0.0003,-0.004,-0.0059,-0.0055,-0.0077,-0.0101,-0.0079,-0.0092,-0.0092,-0.0092,-0.0119,-0.0121,-0.0093,-0.0094,-0.0094,-0.0094,0,0.0167,0.0175,0.0184,0.0189,0.0189,0.0198,0.0183,0.0176,0.0155,0.0135,0.011,0.0058,0.0023,0.0007,-0.0022,-0.0036,-0.0055,-0.008,-0.0104,-0.0086,-0.0115,-0.0119,-0.0089,-0.009,-0.0091,-0.0092,0,0,0.0201,0.0209,0.0211,0.0225,0.0219,0.0227,0.0233,0.023,0.0234,0.0194,0.0192,0.0139,0.0105,0.0081,0.0039,0.0006,-0.0018,-0.0032,-0.0036,-0.0053,-0.0091,-0.0097,-0.0102,-0.0048,-0.0049,-0.0049,-0.011,0,0.0236,0.0274,0.0266,0.0302,0.0324,0.0301,0.0312,0.0301,0.0278,0.0266,0.0207,0.0187,0.0135,0.0119,0.0078,0.0008,-0.0027,0.0001,-0.011,-0.0113,-0.0117,-0.0106,-0.0077,-0.0127,-0.0114,-0.0115,-0.0115,0,0.0277,0.0297,0.0341,0.0366,0.0374,0.0391,0.0402,0.0407,0.0377,0.0355,0.0316,0.0267,0.0217,0.0168,0.006,0.008,0.0003,-0.0056,-0.0061,-0.0088,-0.0126,-0.0146,-0.0136,-0.0122,-0.0122,-0.0121,-0.0121,0,0.0317,0.0351,0.039,0.0398,0.0419,0.0436,0.0449,0.0435,0.0448,0.0413,0.0413,0.0334,0.0305,0.0199,0.0077,0.0065,-0.0044,-0.0079,-0.0155,-0.0157,-0.0164,-0.0165,-0.0157,-0.0156,-0.0156,-0.0156,-0.0156,0,0.036,0.039,0.0415,0.0435,0.049,0.0486,0.0532,0.0524,0.0524,0.0552,0.0467,0.0469,0.031,0.0227,0.0103,-0.0028,-0.0026,-0.0142,-0.0172,-0.0141,-0.014,-0.0163,-0.0163,-0.0158,-0.0158,-0.0157,-0.0157,0,0.0394,0.0406,0.0456,0.0493,0.051,0.055,0.06,0.0628,0.0619,0.0653,0.0648,0.0569,0.0462,0.0302,0.0132,0.0019,-0.0117,-0.0167,-0.0113,-0.0135,-0.0214,-0.021,-0.0259,-0.026,-0.0261,-0.0261,-0.0261,0,0.0412,0.0442,0.0502,0.0539,0.0559,0.0617,0.0657,0.0673,0.0712,0.0724,0.0749,0.0657,0.0611,0.0361,0.0135,-0.008,-0.0113,-0.019,-0.0212,-0.02,-0.0224,-0.0219,-0.0215,-0.0199,-0.0199,-0.0199,-0.0198,0,0.0452,0.0472,0.0515,0.0595,0.0649,0.0717,0.0782,0.0829,0.0856,0.089,0.092,0.0885,0.0649,0.043,0.013,-0.0009,-0.0156,-0.0195,-0.0201,-0.0173,-0.0147,-0.0169,-0.0166,-0.0197,-0.0198,-0.0198,-0.0198,-0.0198,0.0479,0.0522,0.0581,0.0658,0.0726,0.0815,0.0885,0.0953,0.1033,0.1097,0.1056,0.102,0.0756,0.038,0.0114,-0.0157,-0.015,-0.0238,-0.0236,-0.0236,-0.0213,-0.0189,-0.0243,-0.0244,-0.0244,-0.0244,-0.0245,0,0.0514,0.0566,0.064,0.0737,0.082,0.085,0.0965,0.1035,0.1144,0.1195,0.1224,0.0995,0.0739,0.044,0.0031,-0.0213,-0.0228,-0.0276,-0.0249,-0.0248,-0.0247,-0.0225,-0.0259,-0.026,-0.026,-0.0261,0,0,0.0535,0.0611,0.0655,0.08,0.0873,0.0996,0.1071,0.1168,0.1236,0.1289,0.1277,0.1217,0.0841,0.0546,0.0204,-0.0032,-0.0075,-0.0065,-0.0024,0.0051,0.0055,-0.0193,-0.0152,0,0,0,0,0]}],[{"header":{"parameterUnit":"m.s-1","parameterCategory":2,"la1":30.2991,"la2":30.254,"lo1":-89.0895,"lo2":-89.0444,"dy":0.0017,"dx":0.0017,"nx":28,"ny":28,"refTime":"2023-08-30T21:00:00:Z","depth":"4","parameterNumber":2,"parameterNumberName":"U-component_of_CURRENTS"},"data":[0,0,0,0,0,0,0,0,0,0,0,0,0,0,0,0,0,0,0,0,0,0,0,0,0,0,0,0,0,0,0,0,0,0,0,0,0,0,0,0,0,0,0,0,0,0,0,0,0,0,0,0,0,0,0,0,0,0,0.114,0.114,0,0.1198,0.1199,0.1199,0.1239,0.124,0.1241,0.1241,0.131,0.1311,0.1312,0,0,0,0,0,0,0,0,0,0,0,0,0,0.1038,0.1039,0.114,0.1141,0.1142,0.1198,0.1199,0.1199,0.1239,0.124,0.1241,0.1241,0.1309,0.1311,0.1312,0,0,0,0,0,0,0,0,0,0,0,0,0,0.1085,0.104,0.1139,0.1171,0.1174,0.1198,0.1199,0.1199,0.1239,0.124,0.1241,0.1242,0.1309,0.1311,0.1313,0.1307,0,0,0.1318,0.1319,0,0,0,0,0,0,0,0,0.1082,0.1088,0.1165,0.1169,0.1173,0.1215,0.1188,0.1237,0.1239,0.1211,0.1241,0.1242,0.128,0.1285,0.1289,0.131,0.1313,0.1319,0.132,0.1321,0.1321,0,0,0,0,0,0,0,0.1079,0.1085,0.116,0.1166,0.1171,0.1174,0.1181,0.1197,0.1238,0.1214,0.1218,0.1229,0.1282,0.1287,0.1291,0.1314,0.1319,0.132,0.1321,0.1322,0.1422,0.1424,0,0,0,0,0,0,0.1078,0.1083,0.1158,0.1162,0.1132,0.1175,0.1183,0.1198,0.1238,0.1245,0.1228,0.1231,0.1283,0.1289,0.1294,0.1367,0.1321,0.1322,0.1323,0.1421,0.1423,0.1424,0,0,0,0,0,0,0.1076,0.1085,0.1155,0.1126,0.1135,0.1177,0.1192,0.1199,0.1234,0.1249,0.1256,0.126,0.1284,0.1291,0.1329,0.1367,0.1323,0.1325,0.1419,0.1422,0.1424,0.1464,0,0,0,0,0,0,0.1073,0.1083,0.1104,0.1126,0.1137,0.1187,0.1192,0.1199,0.1239,0.1244,0.1278,0.1284,0.1286,0.1326,0.1331,0.1369,0.1326,0.1417,0.142,0.1423,0.146,0.1467,0.1473,0,0,0,0,0,0.1069,0.1087,0.1104,0.1114,0.1161,0.1188,0.1194,0.1223,0.124,0.1257,0.1281,0.1284,0.1348,0.1328,0.1334,0.1373,0.1416,0.1419,0.1423,0.1458,0.1466,0.1473,0,0,0,0,0,0,0.1057,0.1093,0.1113,0.1144,0.1174,0.1196,0.122,0.1239,0.1271,0.1284,0.1295,0.1302,0.1353,0.1356,0.1334,0.1412,0.1386,0.1391,0.1411,0.1419,0.1425,0.1443,0.1328,0,0,0,0,0,0.1063,0.1086,0.1121,0.1149,0.1168,0.12,0.122,0.1241,0.1268,0.1284,0.1309,0.1338,0.1365,0.1386,0.1407,0.1444,0.1452,0.1477,0.1483,0.1488,0.1507,0.1541,0.1552,0.1436,0.1436,0.1436,0,0,0.1066,0.1091,0.1105,0.1148,0.1176,0.1205,0.1214,0.1253,0.1284,0.1286,0.1341,0.1361,0.138,0.1423,0.1447,0.1435,0.1524,0.1492,0.1496,0.1513,0.1546,0.1557,0.1567,0.1438,0.1438,0.1437,0,0,0.1073,0.1108,0.1129,0.1157,0.1205,0.1225,0.1244,0.1285,0.1315,0.1359,0.1374,0.1418,0.1457,0.1482,0.1497,0.1551,0.1554,0.1564,0.1612,0.1645,0.1654,0.1663,0.168,0.169,0.1568,0.1568,0.1568,0,0.1075,0.1111,0.114,0.1169,0.1199,0.1238,0.127,0.1301,0.1351,0.1386,0.1386,0.1472,0.1486,0.1548,0.157,0.1567,0.158,0.1579,0.1652,0.1661,0.1669,0.1684,0.1695,0.1571,0.157,0.157,0.157,0,0.1095,0.1133,0.115,0.12,0.1233,0.1269,0.1315,0.1361,0.1403,0.1437,0.1516,0.1538,0.1594,0.1606,0.1606,0.1682,0.167,0.1652,0.1631,0.1683,0.1696,0.1706,0.1574,0.1573,0.1572,0.1572,0,0,0.1069,0.1148,0.1157,0.1188,0.1257,0.1281,0.1347,0.1415,0.1469,0.1524,0.1594,0.165,0.1681,0.1701,0.1714,0.1746,0.1809,0.1734,0.1734,0.1746,0.1879,0.1768,0.1768,0.1805,0.1808,0.1809,0.186,0,0.108,0.1133,0.1177,0.1234,0.1265,0.1329,0.1385,0.1454,0.1516,0.1591,0.1645,0.1712,0.171,0.1748,0.1784,0.1807,0.184,0.1797,0.1831,0.1832,0.1723,0.1778,0.1817,0.1868,0.187,0.1871,0.1873,0,0.1081,0.1118,0.1177,0.1258,0.1281,0.1328,0.1433,0.1488,0.16,0.1654,0.1738,0.178,0.1862,0.1839,0.1918,0.1893,0.1902,0.1907,0.1908,0.1802,0.174,0.1807,0.1891,0.1889,0.1888,0.1887,0.1886,0,0.1035,0.1115,0.1165,0.1192,0.1289,0.1344,0.1406,0.1516,0.158,0.1705,0.1767,0.1857,0.1914,0.1949,0.1979,0.1958,0.2046,0.2007,0.1915,0.1907,0.1972,0.1962,0.2063,0.2063,0.2063,0.2063,0.2063,0,0.1017,0.1056,0.1153,0.1178,0.1251,0.1327,0.1421,0.1502,0.1622,0.1699,0.1801,0.1868,0.1948,0.2005,0.2012,0.2,0.2075,0.1941,0.192,0.1986,0.1977,0.1978,0.1968,0.2065,0.2064,0.2064,0.2064,0,0.0962,0.1028,0.1083,0.1191,0.1233,0.1285,0.1426,0.1488,0.1613,0.1718,0.1764,0.19,0.1971,0.2028,0.2084,0.2029,0.2031,0.2006,0.2085,0.2064,0.186,0.1851,0.1901,0.1898,0.1895,0.1893,0.1891,0,0.0941,0.0963,0.1075,0.1119,0.1179,0.1271,0.1339,0.1474,0.1542,0.1719,0.176,0.1883,0.1955,0.1951,0.2013,0.2021,0.1996,0.1978,0.1912,0.1873,0.1848,0.1843,0.1838,0.1886,0.1886,0.1885,0.1884,0,0.0887,0.0936,0.0981,0.1071,0.1149,0.1225,0.1332,0.1369,0.1519,0.1641,0.1719,0.1765,0.1842,0.1881,0.1907,0.1907,0.1977,0.1948,0.1953,0.189,0.1855,0.1832,0.1831,0.1874,0.1876,0.1877,0.1877,0,0.0849,0.0864,0.0933,0.1009,0.1097,0.1156,0.1222,0.1304,0.1384,0.1569,0.1587,0.1716,0.1824,0.1824,0.1849,0.1843,0.1805,0.1732,0.1747,0.1759,0.1689,0.1621,0.1566,0,0,0,0,0,0.08,0.0813,0.0871,0.0943,0.1025,0.1086,0.1208,0.1275,0.1409,0.1425,0.1503,0.1568,0.1617,0.1686,0.165,0.1781,0.1808,0.173,0.173,0.182,0.1832,0.1762,0,0,0,0,0,0,0.0767,0.0807,0.0836,0.0873,0.0911,0.0996,0.107,0.1165,0.1185,0.1323,0.1362,0.1466,0.154,0.1616,0.1616,0.1634,0.1601,0.1808,0.1804,0.1814,0.1824,0.1833,0.1765,0,0,0,0,0]},{"header":{"parameterUnit":"m.s-1","parameterCategory":2,"la1":30.2991,"la2":30.254,"lo1":-89.0895,"lo2":-89.0444,"dy":0.0017,"dx":0.0017,"nx":28,"ny":28,"refTime":"2023-08-30T21:00:00:Z","depth":"4","parameterNumber":3,"parameterNumberName":"V-component_of_CURRENTS"},"data":[0,0,0,0,0,0,0,0,0,0,0,0,0,0,0,0,0,0,0,0,0,0,0,0,0,0,0,0,0,0,0,0,0,0,0,0,0,0,0,0,0,0,0,0,0,0,0,0,0,0,0,0,0,0,0,0,0,0,0.0171,0.0171,0,0.0141,0.014,0.014,0.0123,0.0123,0.0123,0.0123,0.0086,0.0085,0.0084,0,0,0,0,0,0,0,0,0,0,0,0,0,0.0179,0.0179,0.0171,0.0171,0.0171,0.0141,0.014,0.014,0.0123,0.0123,0.0123,0.0123,0.0087,0.0086,0.0084,0,0,0,0,0,0,0,0,0,0,0,0,0,0.0164,0.0179,0.0171,0.0159,0.0158,0.0141,0.014,0.014,0.0123,0.0123,0.0123,0.0123,0.0087,0.0086,0.0084,0.0075,0,0,0.008,0.0079,0,0,0,0,0,0,0,0,0.0165,0.0164,0.0161,0.016,0.0158,0.0136,0.0129,0.0118,0.0123,0.0136,0.0123,0.0123,0.0103,0.01,0.0093,0.0073,0.0071,0.0079,0.0079,0.0078,0.0078,0,0,0,0,0,0,0,0.0166,0.0165,0.0158,0.0161,0.0159,0.0143,0.0141,0.0127,0.0119,0.0135,0.0133,0.0131,0.0102,0.0095,0.0093,0.0071,0.008,0.0078,0.0077,0.0077,0.0035,0.0035,0,0,0,0,0,0,0.0173,0.0166,0.0159,0.0158,0.0163,0.0143,0.0141,0.0143,0.0119,0.0116,0.0131,0.013,0.0098,0.0094,0.0091,0.0087,0.0078,0.0077,0.0076,0.0035,0.0035,0.0035,0,0,0,0,0,0,0.0173,0.0173,0.0161,0.0161,0.0159,0.0143,0.0145,0.0142,0.0138,0.0117,0.0113,0.013,0.0097,0.0093,0.0087,0.0085,0.0076,0.0075,0.0036,0.0035,0.0035,0.0073,0,0,0,0,0,0,0.0174,0.0173,0.0177,0.0162,0.0159,0.0157,0.0145,0.0142,0.0137,0.0135,0.0115,0.0111,0.0097,0.009,0.0086,0.0083,0.0073,0.0036,0.0036,0.0035,0.0072,0.0074,0.0075,0,0,0,0,0,0.0174,0.0183,0.0177,0.0176,0.0164,0.0157,0.0154,0.0142,0.0137,0.0138,0.0126,0.0112,0.0084,0.0089,0.0084,0.0081,0.0036,0.0036,0.0035,0.0071,0.0073,0.0075,0,0,0,0,0,0,0.0188,0.0182,0.0175,0.0181,0.0171,0.0155,0.0155,0.0145,0.0136,0.0137,0.0116,0.0112,0.0103,0.0086,0.0092,0.0066,0.0055,0.0053,0.0083,0.0085,0.0087,0.0092,0.0072,0,0,0,0,0,0.0192,0.0198,0.0185,0.019,0.0187,0.0171,0.0166,0.0159,0.0148,0.0144,0.0129,0.0111,0.0096,0.0088,0.0073,0.0063,0.0038,0.0054,0.0056,0.0058,0.0057,0.0017,0.0015,0.0033,0.0033,0.0033,0,0,0.0199,0.0196,0.0199,0.0193,0.0185,0.0187,0.0168,0.0167,0.0167,0.0142,0.0139,0.012,0.0095,0.0085,0.0078,0.0072,0.0041,0.0057,0.0059,0.0057,0.0016,0.0014,0.0013,0.0033,0.0033,0.0033,0,0,0.0216,0.0212,0.0222,0.0217,0.0209,0.0201,0.0202,0.0188,0.0181,0.0176,0.0156,0.0137,0.0117,0.0095,0.0083,0.0083,0.0053,0.0076,0.0088,0.0049,0.0048,0.0046,0.002,0.0016,0.0075,0.0075,0.0075,0,0.0222,0.0234,0.0223,0.0229,0.023,0.021,0.022,0.0209,0.0194,0.0188,0.0182,0.0141,0.012,0.0099,0.0098,0.0087,0.0065,0.0085,0.0052,0.005,0.0047,0.0022,0.0016,0.0077,0.0077,0.0076,0.0076,0,0.0244,0.0253,0.0259,0.0263,0.0262,0.0268,0.0254,0.0249,0.0239,0.0223,0.0202,0.017,0.0145,0.013,0.0116,0.0086,0.0077,0.0062,0.005,0.0048,0.0021,0.0015,0.0079,0.0079,0.0078,0.0078,0,0,0.0262,0.0273,0.0276,0.0287,0.0282,0.0286,0.0286,0.0279,0.0279,0.0251,0.0244,0.0204,0.018,0.0163,0.0134,0.0097,0.0061,0.0075,0.0072,0.0056,-0.0017,-0.0014,-0.002,0.0041,0.004,0.0039,-0.0025,0,0.0282,0.0308,0.0307,0.0332,0.0344,0.033,0.0334,0.0323,0.0306,0.0292,0.0245,0.023,0.0194,0.0185,0.014,0.0084,0.0045,0.008,-0.0018,-0.002,-0.0013,-0.0028,0.0035,-0.0029,-0.0031,-0.0032,-0.0033,0,0.0303,0.0321,0.035,0.0372,0.0377,0.039,0.0394,0.0394,0.0364,0.0348,0.0312,0.0276,0.0224,0.0194,0.0089,0.0114,0.0051,0.0002,-0.0002,-0.0018,-0.003,-0.0031,-0.0045,-0.0044,-0.0043,-0.0042,-0.0041,0,0.0325,0.0352,0.0381,0.0386,0.0404,0.0419,0.043,0.0414,0.042,0.0385,0.0382,0.0308,0.0282,0.0188,0.0088,0.0086,-0.0029,-0.0044,-0.0103,-0.0103,-0.0102,-0.01,-0.0127,-0.0127,-0.0127,-0.0127,-0.0127,0,0.0345,0.0369,0.0398,0.0415,0.0456,0.0455,0.0488,0.048,0.0475,0.0485,0.0418,0.0405,0.0278,0.0199,0.0098,-0.0017,-0.0024,-0.0105,-0.0124,-0.0084,-0.0079,-0.0106,-0.0103,-0.0129,-0.0129,-0.0128,-0.0128,0,0.0358,0.0375,0.0414,0.045,0.0468,0.0498,0.0542,0.0557,0.0548,0.0558,0.0553,0.0477,0.0371,0.0241,0.009,0.0009,-0.0108,-0.0149,-0.0086,-0.0099,-0.0159,-0.0153,-0.0222,-0.0223,-0.0223,-0.0224,-0.0224,0,0.0365,0.0386,0.0445,0.0476,0.0498,0.0546,0.0576,0.0592,0.0612,0.0603,0.0609,0.052,0.0452,0.025,0.0103,-0.0092,-0.0122,-0.0178,-0.0185,-0.0159,-0.0171,-0.0164,-0.0158,-0.0225,-0.0225,-0.0225,-0.0225,0,0.0377,0.04,0.0434,0.0502,0.0548,0.0602,0.0653,0.0675,0.0689,0.0685,0.0657,0.055,0.043,0.026,0.0109,-0.0032,-0.014,-0.0184,-0.0184,-0.0191,-0.0163,-0.0173,-0.0166,-0.0226,-0.0226,-0.0226,-0.0226,0,0.0384,0.041,0.0459,0.0517,0.0581,0.064,0.0668,0.0698,0.072,0.0713,0.0704,0.0572,0.0498,0.029,0.0152,0.0012,-0.003,-0.0073,-0.008,-0.008,-0.0025,0.0032,0.0009,0,0,0,0,0,0.0382,0.0412,0.047,0.0534,0.06,0.0642,0.0708,0.0728,0.0748,0.0737,0.0725,0.0614,0.0409,0.0321,0.018,0.0124,-0.0066,-0.0046,-0.0122,-0.0235,-0.0233,-0.0194,0,0,0,0,0,0,0.0379,0.0429,0.0463,0.0539,0.0586,0.0661,0.0707,0.0724,0.0723,0.0723,0.0618,0.0576,0.0374,0.0485,0.0175,0.0132,0.0065,-0.014,-0.0143,-0.0236,-0.0234,-0.0233,-0.0192,0,0,0,0,0]}]]